CZ-4C DEB, 43266

Orbit data source: Space-Track

CZ-4C DEB, 43266 is space debris in SSO originally from a launch on Sat, 31 Mar 2018 UTC launched from the Taiyaun Space Center, China (TSC). Debris objects in space refer to the collection of defunct objects orbiting the Earth. Examples of debris include non-operational satellites, rocket bodies, and fragments generated from explosions, collisions, or faulty payload assembly.

Loading next visibility...
Identifier
43266, 2018-031H
Orbit
SSO
Country
Flag of CNCN / PRC
Related business
Manufacturer
Unknown
Mission
Spacecraft
Bus & Motor
Unknown
Mass
Unknown
Launch date (UTC)
2018-03-31 (8 years ago)
Launch vehicle
Unknown
Launch site
Taiyaun Space Center, China (TSC)
Object type
Payload
Rocket body
Debris
Shape & HBR
Unknown shape, 0.1 m
Radar Cross Section
Medium (>0.1 m² and <1 m²)

Expand to show TLE details & history
Last TLE update: 12 hours ago

TLE from 12 hours ago
0 CZ-4C DEB
1 43266U 18031H   26199.75203749  .00004681  00000-0  24212-3 0  9991
2 43266  98.1713  24.0730 0019525 182.7215 177.3913 15.16653699451558
Epoch: 2026-07-18T18:02Z
TLE epoch observation values (Epoch: 2026-07-18T18:02:56.039Z)
Latitude
-0.00001°
Longitude
176.77922°
Altitude
532.475 km
Speed
7.589 km/s
True Right ascension
01h 36m 17s
True Declination
0° 00' 00"
Sunlit
Object was in daylight at epoch
Visualization orbit readout
Latitude
Unknown
Longitude
Unknown
Altitude
Unknown
Speed
Unknown
Apparent Right ascension
Unknown
Apparent Declination
Unknown
Sunlit
N/A
Visualization observer readout
Local Sidereal Time
18:51:00
Azimuth
Unknown
Elevation
Unknown
Doppler factor
Unknown
Orbital elements
Apogee altitude
526.422 km
Perigee altitude
499.512 km
Semi-major axis
6,891.104 km
Eccentricity
0.00195
Inclination
98.1713°
RAAN
24.073°
Arg. of periapsis
182.7215°
True anomaly
177.40146°
Mean anomaly
177.3913°
Eccentric anomaly
177.39638°
Mean motion
3.79411 °/min
Orbital period
94.88 mins
BSTAR
0.00024212
Loading maneuver chart data...
Computing Atmospheric mass density...
Loading historical data...
Loading historical data...
Loading historical data...
Loading historical data...
Loading historical data...
Loading historical data...
Loading historical data...

Documentation

Showing up to 5 results
|